Date String (YYYY-MM-DD hh:mm:ss) UTC,Instrument flags,Ambient pressure (hPa),Sample flow (lpm),Bypass flow (lpm),Sample temperature (°C),Ambient temperature (°C),ASC tube jacket temperature (°C),LED temperature (°C),Box temperature (°C),Sample RH (%),Span deviation,Mass concentration (μg/m³),Mass concentration (μg/m³),Mass concentration (μg/m³)
DateTimeUTC,F1_M11,P_M11,Q1_M11,Q2_M11,T1_M11,T2_M11,T3_M11,T4_M11,T5_M11,U1_M11,ZSPAN_M11,X0_M11,X2_M11,X1_M11
2021-11-24 06:00:00,,0815.4,5.01,0.00,26.5,25.4,00.0,35.6,28.1,10.3,0000.0,0005.60,0002.54,0001.80
2021-11-24 06:01:00,,0815.3,5.00,0.00,26.5,25.4,00.0,35.6,28.1,10.3,0000.0,0005.52,0002.54,0001.80
2021-11-24 06:02:00,,0815.3,4.99,0.00,26.5,25.4,00.0,35.6,28.2,10.3,0000.0,0005.37,0002.48,0001.79
2021-11-24 06:03:00,,0815.4,4.99,0.00,26.5,25.4,00.0,35.6,28.1,10.3,0000.0,0005.41,0002.49,0001.79
2021-11-24 06:04:00,,0815.4,5.01,0.00,26.4,25.4,00.0,35.6,28.2,10.2,0000.0,0005.75,0002.49,0001.79
2021-11-24 06:05:00,,0815.8,5.00,0.00,26.4,25.3,00.0,35.6,28.1,10.2,0000.0,0005.65,0002.50,0001.80
2021-11-24 06:06:00,,0816.0,5.00,0.00,26.4,25.3,00.0,35.6,28.2,10.3,0000.0,0005.68,0002.50,0001.81
2021-11-24 06:07:00,,0815.7,5.00,0.00,26.4,25.3,00.0,35.6,28.1,10.3,0000.0,0005.71,0002.48,0001.81
2021-11-24 06:08:00,,0815.5,5.02,0.00,26.4,25.4,00.0,35.5,28.1,10.3,0000.0,0005.82,0002.50,0001.81
2021-11-24 06:09:00,,0815.4,5.00,0.00,26.4,25.3,00.0,35.5,28.1,10.4,0000.0,0006.28,0002.53,0001.81
2021-11-24 06:10:00,,0815.4,4.98,0.00,26.4,25.3,00.0,35.5,28.1,10.4,0000.0,0006.45,0002.58,0001.81
2021-11-24 06:11:00,,0815.2,5.00,0.00,26.4,25.3,00.0,35.5,28.1,10.4,0000.0,0006.50,0002.58,0001.80
2021-11-24 06:12:00,,0815.1,4.99,0.00,26.3,25.3,00.0,35.5,28.1,10.4,0000.0,0007.13,0002.59,0001.81
2021-11-24 06:13:00,,0815.1,5.01,0.00,26.3,25.2,00.0,35.5,28.1,10.3,0000.0,0007.23,0002.65,0001.83
2021-11-24 06:14:00,,0815.1,4.99,0.00,26.3,25.2,00.0,35.5,28.1,10.3,0000.0,0007.48,0002.69,0001.84
2021-11-24 06:15:00,,0815.1,5.00,0.00,26.3,25.2,00.0,35.5,28.1,10.2,0000.0,0007.66,0002.72,0001.83
2021-11-24 06:16:00,,0815.1,5.00,0.00,26.3,25.1,00.0,35.4,28.0,10.1,0000.0,0007.79,0002.77,0001.83
2021-11-24 06:17:00,,0815.2,4.99,0.00,26.3,25.1,00.0,35.4,28.0,09.9,0000.0,0008.13,0002.83,0001.84
2021-11-24 06:18:00,,0815.2,5.00,0.00,26.2,25.1,00.0,35.4,28.0,09.8,0000.0,0008.22,0002.83,0001.84
2021-11-24 06:19:00,,0814.9,5.01,0.00,26.2,25.1,00.0,35.4,28.0,09.8,0000.0,0008.62,0002.84,0001.85
2021-11-24 06:20:00,,0814.8,4.99,0.00,26.2,25.1,00.0,35.4,28.0,09.1,0000.0,0008.41,0002.87,0001.85
2021-11-24 06:21:00,,0814.9,5.00,0.00,26.2,25.0,00.0,35.4,28.0,09.7,0000.0,0009.11,0003.04,0001.87
2021-11-24 06:22:00,,0815.0,5.00,0.00,26.2,25.0,00.0,35.3,28.0,10.1,0000.0,0009.93,0003.13,0001.88
2021-11-24 06:23:00,,0815.4,4.99,0.00,26.2,24.9,00.0,35.3,27.9,10.2,0000.0,0010.01,0003.18,0001.89
2021-11-24 06:24:00,,0815.1,5.00,0.00,26.1,24.9,00.0,35.3,27.9,10.2,0000.0,0010.16,0003.18,0001.87
2021-11-24 06:25:00,,0815.2,5.01,0.00,26.1,24.9,00.0,35.3,27.9,10.1,0000.0,0010.78,0003.24,0001.88
2021-11-24 06:26:00,,0815.4,4.99,0.00,26.1,24.9,00.0,35.3,27.9,10.2,0000.0,0010.60,0003.28,0001.89
2021-11-24 06:27:00,,0815.4,4.99,0.00,26.1,24.9,00.0,35.2,27.9,10.4,0000.0,0010.43,0003.27,0001.89
2021-11-24 06:28:00,,0815.4,5.00,0.00,26.1,24.9,00.0,35.2,27.9,10.3,0000.0,0010.95,0003.31,0001.88
2021-11-24 06:29:00,,0815.4,5.01,0.00,26.1,24.9,00.0,35.2,27.9,10.4,0000.0,0012.10,0003.42,0001.91
2021-11-24 06:30:00,,0815.6,5.00,0.00,26.0,24.8,00.0,35.2,27.8,10.5,0000.0,0011.85,0003.48,0001.92
2021-11-24 06:31:00,,0815.9,4.99,0.00,26.0,24.8,00.0,35.2,27.8,10.5,0000.0,0011.77,0003.49,0001.92
2021-11-24 06:32:00,,0815.9,4.99,0.00,26.0,24.8,00.0,35.2,27.8,10.6,0000.0,0011.26,0003.42,0001.90
2021-11-24 06:33:00,,0815.9,5.01,0.00,26.0,24.8,00.0,35.1,27.8,10.3,0000.0,0010.40,0003.37,0001.88
2021-11-24 06:34:00,,0815.6,4.99,0.00,26.0,24.8,00.0,35.1,27.8,10.4,0000.0,0010.41,0003.34,0001.87
2021-11-24 06:35:00,,0815.7,5.01,0.00,26.0,24.8,00.0,35.1,27.8,10.5,0000.0,0010.50,0003.33,0001.87
2021-11-24 06:36:00,,0815.7,5.01,0.00,26.0,24.8,00.0,35.1,27.8,10.5,0000.0,0009.66,0003.26,0001.86
2021-11-24 06:37:00,,0815.9,5.00,0.00,26.0,24.8,00.0,35.1,27.8,10.6,0000.0,0009.50,0003.20,0001.87
2021-11-24 06:38:00,,0815.7,5.00,0.00,26.0,24.8,00.0,35.1,27.7,10.4,0000.0,0009.52,0003.21,0001.88
2021-11-24 06:39:00,,0815.9,4.99,0.00,26.0,24.7,00.0,35.1,27.7,10.4,0000.0,0008.99,0003.15,0001.87
2021-11-24 06:40:00,,0816.0,4.98,0.00,25.9,24.7,00.0,35.0,27.7,10.3,0000.0,0007.46,0002.97,0001.85
2021-11-24 06:41:00,,0815.9,5.01,0.00,25.9,24.7,00.0,35.0,27.7,10.2,0000.0,0006.98,0002.82,0001.82
2021-11-24 06:42:00,,0816.0,4.99,0.00,25.9,24.7,00.0,35.0,27.7,09.9,0000.0,0006.73,0002.76,0001.81
2021-11-24 06:43:00,,0816.0,4.99,0.00,25.9,24.8,00.0,35.0,27.6,09.6,0000.0,0006.60,0002.68,0001.80
2021-11-24 06:44:00,,0816.0,5.01,0.00,25.9,24.7,00.0,35.0,27.6,09.8,0000.0,0006.53,0002.66,0001.81
2021-11-24 06:45:00,,0816.2,4.99,0.00,25.9,24.7,00.0,35.0,27.6,10.0,0000.0,0005.83,0002.67,0001.81
2021-11-24 06:46:00,,0816.3,5.00,0.00,25.9,24.8,00.0,35.0,27.6,10.3,0000.0,0005.60,0002.66,0001.81
2021-11-24 06:47:00,,0816.3,5.00,0.00,25.8,24.8,00.0,35.0,27.6,10.3,0000.0,0005.32,0002.67,0001.82
2021-11-24 06:48:00,,0816.4,5.01,0.00,25.8,24.8,00.0,34.9,27.5,10.4,0000.0,0005.19,0002.65,0001.82
2021-11-24 06:49:00,,0816.4,4.99,0.00,25.8,24.8,00.0,34.9,27.4,10.5,0000.0,0004.83,0002.59,0001.83
2021-11-24 06:50:00,,0816.5,5.00,0.00,25.8,24.7,00.0,34.9,27.4,10.6,0000.0,0004.51,0002.59,0001.82
2021-11-24 06:51:00,,0816.4,5.01,0.00,25.8,24.7,00.0,34.9,27.4,10.6,0000.0,0004.55,0002.61,0001.84
2021-11-24 06:52:00,,0816.4,5.00,0.00,25.8,24.7,00.0,34.9,27.4,10.7,0000.0,0004.65,0002.62,0001.86
2021-11-24 06:53:00,,0816.4,5.00,0.00,25.8,24.7,00.0,34.9,27.4,10.7,0000.0,0004.81,0002.67,0001.88
2021-11-24 06:54:00,,0816.4,4.98,0.00,25.8,24.7,00.0,34.9,27.4,10.7,0000.0,0004.54,0002.67,0001.90
2021-11-24 06:55:00,,0816.4,5.00,0.00,25.8,24.8,00.0,34.9,27.4,10.8,0000.0,0004.47,0002.66,0001.91
2021-11-24 06:56:00,,0816.4,5.00,0.00,25.8,24.8,00.0,34.9,27.4,10.8,0000.0,0004.32,0002.62,0001.93
2021-11-24 06:57:00,,0816.4,4.99,0.00,25.8,24.8,00.0,34.9,27.4,10.9,0000.0,0004.26,0002.64,0001.94
2021-11-24 06:58:00,,0816.4,5.01,0.00,25.8,24.8,00.0,34.9,27.4,10.9,0000.0,0004.40,0002.68,0001.94
2021-11-24 06:59:00,,0816.4,4.99,0.00,25.8,24.8,00.0,34.9,27.4,10.9,0000.0,0004.50,0002.70,0001.94
